CAPE
25 3 14 2 0 3 42 28 21 20 6 1 0 0 0 0 0 0 0 6 2 13 0 0 0 0 0 0 0 0 0 0 0 0 0 0 0 0 0 0 0 0 0 0 0
37 71 23 51 36 5 65 35 30 19 1 0 0 0 0 0 0 0 7 34 22 16 0 9 11 2 0 0 0 0 0 0 0 0 0 0 0 0 0 0 0 0 0 0 0
128 124 146 79 128 78 102 43 43 17 5 19 4 0 0 0 0 0 0 22 25 45 0 0 0 1 9 0 0 0 0 0 0 0 0 0 0 0 0 0 0 0 0 1 1
183 188 242 123 136 183 133 109 46 4 16 34 23 2 0 17 0 0 29 51 47 47 0 8 1 2 0 0 0 1 0 0 0 0 0 0 0 0 0 0 0 0 0 0 1
242 234 192 251 126 246 201 167 81 10 5 30 31 18 4 9 0 1 0 110 168 13 7 13 10 2 0 0 2 0 0 0 0 0 0 0 0 0 0 0 0 0 0 0 0
222 218 78 219 184 253 192 187 150 18 0 5 30 41 1 0 0 0 30 61 141 44 47 5 5 0 0 1 9 5 0 0 0 0 0 0 0 0 0 0 0 0 0 0 0
153 269 100 217 225 272 182 232 106 7 0 0 30 32 5 0 0 0 2 26 19 42 101 3 0 3 1 6 15 0 0 0 0 0 0 0 0 0 0 0 0 0 0 0 0
138 157 84 202 155 228 155 264 50 0 0 0 30 43 0 0 1 0 1 11 55 6 6 2 1 3 5 0 10 2 0 0 0 0 0 0 0 0 0 0 0 0 0 0 8
164 84 61 162 153 154 190 125 3 0 0 0 0 12 0 0 0 10 12 0 38 13 2 5 15 9 1 6 5 8 0 0 0 0 0 0 0 0 0 0 0 0 0 0 12
118 66 74 150 132 124 201 12 0 0 2 1 0 0 0 0 0 1 27 0 38 52 34 27 38 0 7 12 1 1 0 2 0 0 0 0 0 0 0 0 0 0 0 0 0
64 48 41 85 221 216 9 0 0 0 0 0 0 0 0 0 0 0 30 4 6 82 11 43 11 2 0 3 1 0 1 0 0 0 0 0 0 0 0 0 0 2 0 3 0
22 56 101 86 270 118 0 0 0 0 0 0 0 0 0 0 0 0 0 0 0 9 17 13 9 11 1 8 6 1 6 1 0 0 0 0 0 0 0 0 0 0 3 22 0
10 38 69 105 199 0 0 0 0 0 0 0 0 0 0 0 0 0 0 3 0 2 3 0 4 1 8 23 24 9 3 1 0 0 0 0 0 0 0 0 0 0 0 1 0
17 39 46 83 0 0 0 0 0 0 0 0 0 0 0 0 0 0 0 0 3 3 7 14 1 5 6 7 13 5 0 4 1 0 1 0 0 0 0 0 0 0 0 0 0
36 68 39 0 0 0 0 0 0 0 0 0 0 0 2 0 0 10 0 0 0 2 2 2 1 3 6 1 33 12 1 1 3 2 1 0 0 0 0 0 0 0 0 0 0
13 4 0 0 0 0 0 0 0 0 0 0 3 0 0 0 0 0 5 5 7 3 2 0 0 4 1 5 5 0 0 1 0 0 0 0 0 0 0 0 0 0 0 0 0
0 0 0 0 0 0 0 0 0 0 0 0 0 1 1 0 0 0 0 3 0 0 0 0 3 0 8 11 5 7 10 0 0 0 0 0 0 0 0 0 0 0 0 0 0
0 0 0 0 0 0 0 0 0 0 0 0 0 0 0 0 0 0 0 0 17 1 0 0 0 10 3 1 1 9 16 0 0 0 0 0 0 0 0 0 0 0 0 0 0
0 0 0 0 0 0 0 0 0 0 0 0 1 0 0 0 0 0 1 0 0 16 0 0 0 0 0 0 0 0 1 0 0 0 0 0 0 0 0 0 0 0 0 0 0
0 0 0 0 0 0 0 0 0 0 0 0 0 0 0 0 0 1 0 0 0 0 0 1 0 0 1 0 0 0 0 0 0 0 0 0 0 0 0 0 0 0 0 0 0
0 0 0 0 0 0 0 0 0 0 1 0 0 0 0 0 0 3 0 0 0 0 0 2 0 0 1 2 0 0 0 0 0 0 0 0 0 0 0 0 0 0 0 0 0
0 0 0 0 0 0 0 0 0 0 0 0 3 0 0 0 0 0 0 0 0 0 0 2 0 0 0 0 0 0 0 0 0 0 0 0 0 0 0 0 0 0 0 0 0
0 0 0 0 0 0 0 0 0 0 0 0 1 0 0 0 0 0 0 0 18 0 0 0 0 0 0 0 0 2 0 0 0 0 0 0 0 0 0 0 0 0 0 0 0
0 0 0 0 0 0 0 0 0 0 0 3 0 0 0 0 1 0 3 0 38 7 1 0 0 0 0 0 0 0 0 0 0 0 0 0 0 0 0 0 0 0 0 0 0
0 0 0 0 0 0 0 0 0 0 1 0 0 0 0 0 0 0 0 15 25 22 1 0 0 0 0 0 0 0 0 0 0 0 0 0 0 0 0 0 0 0 0 0 0
0 0 0 0 0 0 0 0 0 0 0 0 0 0 0 0 0 0 0 0 1 7 1 0 0 0 0 0 0 0 1 0 1 0 0 0 0 0 0 0 0 0 0 0 0
0 0 0 0 0 0 0 0 0 0 0 0 0 0 0 0 1 1 1 0 0 0 0 0 0 0 0 0 0 0 0 0 0 0 0 0 0 0 0 0 0 0 0 0 0
CIN
-0 -0 -7 -2 -0 -0 -0 -0 -0 -6 -13 -7 -0 -0 -0 -0 -0 -0 -0 -31 -9 -57 -0 -0 -0 -0 -0 -0 -0 -0 -0 -0 -0 -0 -0 -0 -0 -0 -0 -0 -0 -0 -0 -0 -0
-0 -0 -2 -0 -1 -3 -0 -2 -0 -6 -0 -0 -0 -0 -0 -0 -0 -0 -47 -8 -17 -24 -0 -91 -69 -91 -0 -0 -0 -0 -0 -0 -0 -0 -0 -0 -0 -0 -0 -0 -0 -0 -0 -0 -0
-0 -0 -0 -4 -0 -0 -0 -4 -0 -11 -0 -4 -13 -0 -0 -0 -0 -0 -0 -18 -27 -5 -10 -0 -3 -15 -32 -0 -16 -0 -0 -0 -0 -0 -0 -0 -0 -0 -0 -0 -0 -0 -0 -0 -0
-0 -0 -0 -4 -3 -0 -0 -1 -2 -9 -2 -0 -20 -18 -0 -8 -0 -0 -11 -8 -5 -5 -98 -63 -50 -7 -19 -22 -0 -26 -0 -0 -0 -0 -0 -0 -0 -0 -0 -0 -0 -0 -0 -0 -0
-0 -0 -7 -1 -8 -4 -0 -0 -0 -28 -5 -0 -12 -30 -26 -0 -0 -30 -0 -16 -2 -27 -48 -60 -36 -22 -0 -0 -8 -0 -0 -0 -0 -0 -0 -0 -0 -0 -0 -0 -0 -0 -0 -0 -0
-1 -2 -14 -7 -14 -4 -4 -0 -0 -15 -0 -2 -3 -20 -3 -0 -0 -0 -14 -14 -3 -37 -44 -61 -40 -7 -0 -3 -7 -28 -0 -0 -0 -0 -0 -0 -0 -0 -0 -0 -0 -0 -0 -0 -0
-2 -2 -13 -11 -15 -8 -11 -0 -3 -11 -0 -0 -4 -13 -8 -0 -0 -0 -1 -14 -21 -16 -5 -46 -2 -8 -36 -7 -17 -12 -0 -0 -0 -0 -0 -0 -0 -0 -0 -0 -0 -0 -0 -0 -0
-4 -6 -13 -14 -18 -11 -16 -0 -28 -0 -0 -0 -7 -6 -0 -0 -14 -0 -3 -16 -4 -24 -87 -61 -42 -15 -7 -13 -14 -7 -0 -0 -0 -0 -0 -0 -0 -0 -0 -0 -0 -0 -0 -0 -240
-5 -9 -16 -21 -26 -22 -14 -19 -27 -0 -0 -0 -0 -4 -0 -0 -0 -28 -20 -0 -4 -25 -104 -83 -15 -2 -1 -0 -0 -1 -0 -0 -0 -0 -0 -0 -0 -0 -0 -0 -0 -0 -0 -0 -222
-13 -10 -15 -21 -21 -25 -17 -83 -0 -0 -37 -49 -0 -0 -0 -0 -0 -5 -26 -0 -1 -19 -21 -27 -9 -2 -1 -3 -0 -0 -0 -0 -0 -0 -0 -0 -0 -0 -0 -87 -0 -0 -0 -0 -56
-11 -16 -18 -25 -8 -13 -19 -0 -0 -0 -0 -0 -0 -0 -0 -0 -0 -0 -23 -10 -8 -1 -21 -0 -4 -0 -0 -1 -1 -1 -0 -0 -0 -0 -0 -0 -0 -0 -0 -0 -0 -231 -0 -141 -0
-10 -20 -15 -16 -8 -29 -0 -0 -0 -0 -0 -0 -0 -0 -0 -0 -0 -0 -0 -0 -1 -2 -16 -4 -15 -2 -2 -6 -2 -1 -1 -0 -0 -0 -0 -0 -0 -0 -0 -0 -0 -0 -208 -212 -0
-30 -18 -17 -10 -9 -0 -0 -0 -0 -0 -0 -0 -0 -0 -0 -0 -0 -0 -0 -3 -2 -13 -3 -0 -1 -1 -4 -0 -1 -1 -1 -4 -3 -0 -0 -0 -0 -0 -0 -0 -0 -0 -0 -59 -0
-19 -12 -19 -20 -0 -0 -0 -0 -0 -0 -0 -0 -0 -0 -0 -0 -0 -0 -0 -0 -2 -0 -0 -0 -1 -6 -21 -2 -4 -0 -1 -0 -2 -0 -0 -0 -0 -0 -0 -0 -0 -0 -0 -0 -0
-12 -14 -19 -0 -0 -0 -0 -0 -0 -0 -0 -0 -0 -0 -3 -0 -0 -3 -0 -0 -0 -0 -0 -0 -0 -11 -2 -0 -9 -1 -33 -16 -3 -1 -0 -0 -0 -0 -0 -0 -0 -0 -0 -0 -0
-15 -26 -0 -0 -0 -0 -0 -0 -0 -0 -0 -0 -2 -0 -0 -0 -0 -0 -0 -4 -2 -0 -0 -0 -0 -0 -0 -2 -9 -0 -0 -7 -4 -0 -0 -0 -0 -0 -0 -0 -0 -0 -0 -0 -0
-0 -0 -0 -0 -0 -0 -0 -0 -0 -0 -0 -0 -0 -5 -4 -0 -0 -0 -0 -0 -0 -0 -0 -0 -0 -0 -7 -1 -9 -4 -27 -1 -0 -0 -0 -0 -0 -0 -0 -0 -0 -0 -0 -0 -0
-0 -0 -0 -0 -0 -0 -0 -0 -0 -0 -0 -0 -0 -0 -0 -0 -0 -0 -0 -0 -1 -2 -0 -0 -0 -1 -20 -11 -0 -5 -9 -4 -0 -0 -0 -0 -0 -0 -0 -0 -0 -0 -0 -0 -0
-0 -0 -0 -0 -0 -0 -0 -0 -0 -0 -0 -0 -1 -0 -0 -0 -0 -0 -0 -0 -0 -1 -0 -0 -0 -0 -0 -0 -1 -0 -0 -0 -0 -0 -0 -0 -0 -0 -0 -0 -0 -0 -0 -0 -0
-0 -0 -0 -0 -0 -0 -0 -0 -0 -0 -0 -0 -0 -0 -0 -0 -0 -1 -0 -0 -0 -0 -0 -0 -0 -0 -0 -0 -0 -0 -0 -0 -0 -0 -0 -0 -0 -0 -0 -0 -0 -0 -0 -0 -0
-0 -0 -0 -0 -0 -0 -0 -0 -0 -0 -0 -0 -0 -0 -0 -0 -0 -0 -0 -0 -0 -0 -0 -0 -0 -0 -0 -0 -0 -0 -0 -0 -0 -0 -0 -0 -0 -0 -0 -0 -0 -0 -0 -0 -0
-0 -0 -0 -0 -0 -0 -0 -0 -0 -0 -0 -0 -0 -0 -0 -0 -0 -0 -0 -0 -0 -0 -0 -0 -0 -0 -0 -0 -0 -0 -0 -0 -0 -0 -0 -0 -0 -0 -0 -0 -0 -0 -0 -0 -0
-0 -0 -0 -0 -0 -0 -0 -0 -0 -0 -0 -0 -0 -0 -0 -0 -0 -0 -1 -0 -43 -0 -0 -0 -0 -0 -0 -0 -0 -0 -0 -0 -0 -0 -0 -0 -0 -0 -0 -0 -0 -0 -0 -0 -0
-0 -0 -0 -0 -0 -0 -0 -0 -0 -0 -0 -0 -0 -0 -0 -0 -0 -0 -4 -3 -11 -40 -5 -0 -0 -0 -0 -0 -0 -0 -0 -0 -0 -0 -0 -0 -0 -0 -0 -0 -0 -0 -0 -0 -0
-0 -0 -0 -0 -0 -0 -0 -0 -0 -0 -0 -0 -0 -0 -0 -0 -0 -0 -0 -0 -18 -14 -19 -0 -0 -0 -0 -0 -0 -0 -0 -0 -0 -0 -0 -0 -0 -0 -0 -0 -0 -0 -0 -0 -0
-0 -0 -0 -0 -0 -0 -0 -0 -0 -0 -0 -0 -0 -0 -0 -0 -0 -0 -0 -0 -0 -0 -0 -0 -0 -0 -0 -0 -0 -0 -0 -0 -0 -0 -0 -0 -0 -0 -0 -0 -0 -0 -0 -0 -0
-0 -0 -0 -0 -0 -0 -0 -0 -0 -0 -0 -0 -0 -0 -0 -0 -0 -0 -0 -0 -0 -0 -0 -0 -0 -0 -0 -0 -0 -0 -0 -0 -0 -0 -0 -0 -0 -0 -0 -0 -0 -0 -0 -0 -0
Wind_Speed
26 27 28 28 29 28 28 27 29 30 31 30 30 29 28 28 28 28 29 22 22 24 19 17 21 24 23 25 21 20 22 27 21 20 18 15 16 15 15 10 13 14 12 13 4
23 24 25 27 28 28 28 26 27 29 30 31 31 30 30 30 29 36 25 22 22 24 20 19 25 29 34 31 25 25 26 26 19 17 19 17 18 15 15 12 14 14 13 3 6
17 19 21 22 24 26 26 25 25 28 28 29 30 31 30 29 35 32 27 23 23 23 21 16 17 20 37 31 28 23 24 22 20 19 19 19 17 17 16 17 16 14 6 2 7
13 14 17 18 19 21 24 25 25 26 26 28 29 29 29 28 41 25 25 35 32 23 17 17 16 22 35 38 30 28 30 26 25 21 21 20 20 19 20 19 17 12 2 3 9
9 8 12 13 16 18 21 24 24 25 25 26 27 28 28 34 36 24 26 26 24 22 24 19 21 21 27 38 32 34 33 29 31 26 26 24 23 22 23 22 16 4 2 1 5
12 8 11 11 13 17 19 19 23 25 25 25 25 27 29 42 26 26 23 21 26 28 27 22 27 26 25 29 37 32 37 34 32 32 27 27 25 19 20 16 12 5 4 3 5
12 10 7 7 4 13 18 18 19 24 24 24 24 25 31 36 25 26 23 21 23 27 30 27 22 24 24 26 29 29 30 31 32 28 27 23 27 23 19 14 11 9 6 5 8
9 10 6 2 2 8 16 15 16 22 23 23 24 24 32 24 25 27 24 24 22 23 25 26 23 23 25 21 29 32 32 36 30 29 26 23 29 21 19 16 14 11 9 7 8
2 6 6 2 4 6 12 15 16 20 22 21 21 23 29 23 25 24 24 26 23 19 19 18 20 23 21 25 28 35 37 39 33 26 26 25 27 24 21 20 17 13 10 9 9
5 1 2 4 4 8 11 15 17 18 18 17 19 24 24 26 23 23 23 26 24 20 19 24 29 29 28 30 38 36 42 36 35 31 30 30 31 25 22 23 21 17 13 10 10
8 3 5 7 5 5 10 15 16 18 19 22 21 24 22 21 23 24 23 24 25 25 28 29 37 43 38 35 36 27 28 40 34 30 31 35 35 31 25 24 23 21 16 13 11
8 8 9 10 7 5 10 14 14 16 21 22 25 25 24 22 26 25 23 28 30 32 29 33 46 40 33 31 34 36 37 32 30 29 29 31 38 33 28 28 26 22 20 17 14
11 12 12 11 9 8 10 14 15 17 21 22 22 24 24 23 27 28 25 27 32 34 35 43 32 32 35 33 32 34 36 32 32 27 29 29 39 37 31 29 26 24 23 19 16
16 14 13 11 7 9 13 13 15 16 22 23 23 21 22 22 27 24 26 28 29 31 30 37 28 26 29 34 34 37 33 31 29 28 40 30 42 37 34 32 29 26 24 22 18
20 17 11 10 8 12 15 12 15 16 28 21 21 19 20 24 23 20 24 27 38 30 22 29 32 32 35 36 33 34 23 28 29 30 28 36 40 39 30 34 32 28 25 22 17
21 17 12 8 10 13 12 14 15 17 26 20 19 20 23 25 25 23 24 26 26 34 32 27 28 32 30 26 30 20 21 23 24 26 35 34 41 42 38 34 31 28 25 21 18
20 14 11 10 8 11 13 14 13 19 18 20 20 20 23 26 27 27 29 35 38 38 39 30 27 27 21 25 28 28 26 29 31 31 34 27 32 38 30 32 30 25 22 20 19
20 18 16 12 12 13 13 14 19 18 21 20 21 23 26 24 27 29 31 40 36 36 28 36 33 27 28 28 33 31 32 32 36 33 31 24 33 31 30 24 20 20 19 18 18
18 16 16 14 15 14 14 15 18 16 17 21 24 26 27 28 28 28 35 38 39 37 37 31 31 24 26 22 22 31 33 26 25 26 29 29 30 27 21 20 16 13 9 12 14
16 16 16 19 18 15 16 19 19 17 19 20 24 23 26 24 29 31 35 34 41 36 31 26 31 26 22 20 24 26 21 32 30 34 35 32 32 31 25 21 19 17 12 9 10
18 17 18 19 16 17 21 22 22 20 20 20 24 25 26 26 30 33 33 33 37 36 32 30 27 27 25 26 26 25 30 24 24 27 31 32 32 23 21 17 16 13 11 10 8
16 15 17 16 18 19 21 20 19 21 19 23 22 27 30 29 31 34 38 36 31 33 38 26 25 28 27 26 22 21 21 20 28 29 25 24 25 18 18 15 10 10 8 8 9
14 14 15 14 13 17 22 25 23 20 23 20 20 22 23 29 31 34 36 34 30 33 37 28 27 27 23 21 22 24 19 20 16 18 24 25 23 16 15 11 10 10 9 8 8
15 14 14 13 13 10 19 19 20 23 25 24 20 11 27 31 34 33 35 32 31 30 29 29 28 23 27 23 21 27 22 18 21 25 23 22 21 17 14 12 11 11 10 8 6
15 13 12 12 9 12 13 15 16 17 21 19 17 5 28 32 32 36 33 30 32 28 31 30 35 29 18 19 21 21 19 20 21 16 20 19 20 17 17 14 8 6 7 9 7
13 14 12 10 12 12 14 15 16 15 16 17 15 20 17 19 24 25 30 30 31 31 32 30 30 24 25 23 19 20 20 20 18 16 20 21 21 16 13 10 11 10 8 8 8
13 13 12 11 15 15 15 15 15 12 11 18 18 14 16 19 23 24 27 26 24 32 33 24 27 27 26 19 17 24 20 17 19 16 18 18 19 13 13 11 10 10 9 10 8
Wind_Direction
314 310 305 301 297 294 290 286 279 275 273 272 272 272 271 272 269 264 260 263 258 252 265 261 249 245 251 248 256 262 247 237 245 246 250 267 260 266 269 286 275 267 275 264 107
317 313 309 304 298 294 289 286 280 275 272 269 269 269 269 267 263 253 258 259 262 256 260 258 247 245 238 240 246 245 241 238 250 256 254 264 264 263 266 274 274 275 271 351 113
321 319 313 311 305 298 292 285 282 276 273 270 267 267 268 267 254 256 258 260 263 258 257 267 262 254 235 237 239 247 245 245 248 257 261 260 267 261 263 263 270 277 297 59 121
318 319 316 313 312 308 296 285 282 275 275 269 266 266 266 256 239 259 264 242 242 247 256 261 259 249 237 234 239 245 243 248 245 257 261 260 265 265 257 262 277 286 18 100 128
315 309 317 317 311 312 304 286 279 273 275 271 265 264 258 245 244 266 271 256 247 247 247 255 250 250 242 238 238 241 242 247 247 254 257 259 261 262 258 256 278 317 315 156 150
316 316 316 318 316 310 306 305 281 271 274 272 267 263 252 239 259 267 271 258 246 242 245 249 248 249 256 242 228 238 240 244 248 250 257 255 259 266 264 264 274 296 283 242 214
314 314 316 321 336 316 304 308 296 272 273 272 268 261 249 243 259 264 265 260 255 245 243 246 255 249 248 240 231 238 241 242 244 250 252 260 257 258 266 263 269 275 272 250 241
311 313 321 344 63 334 308 317 310 279 272 271 269 258 249 258 264 258 258 256 262 254 251 246 253 256 248 247 237 238 242 239 245 247 252 255 250 260 261 256 259 263 264 253 245
264 316 321 82 115 341 320 313 307 287 275 271 264 254 248 264 254 257 255 251 254 257 255 251 249 250 249 234 236 234 236 237 244 249 250 250 251 258 258 254 256 257 256 251 247
166 13 93 106 91 331 324 308 297 289 279 273 266 250 256 251 258 256 255 248 249 241 247 243 242 240 242 234 233 235 234 241 242 244 247 248 248 256 258 253 253 254 253 252 247
141 101 112 111 87 2 322 303 300 277 267 253 254 252 257 272 262 254 254 245 247 242 239 239 237 231 237 240 240 244 241 241 245 248 248 248 248 252 257 254 253 252 252 255 252
105 113 117 116 88 19 320 300 308 293 262 263 259 261 264 267 254 252 251 238 237 240 239 238 235 236 241 245 242 241 243 243 249 246 248 249 247 251 253 255 252 251 250 253 257
97 110 111 102 74 329 318 300 303 299 266 263 266 263 262 260 252 248 244 239 238 242 237 236 246 242 240 241 238 241 241 243 249 248 249 251 250 248 252 255 256 253 252 256 258
99 96 99 89 345 314 298 305 309 306 264 260 261 266 264 260 252 256 246 240 237 239 248 240 242 239 239 238 236 240 243 249 249 247 244 248 249 250 251 252 253 253 251 254 258
92 91 81 320 340 293 284 309 306 309 246 266 262 274 268 249 257 259 248 240 232 237 256 241 238 237 239 241 236 244 247 248 253 251 250 247 251 251 252 250 250 253 253 254 257
82 78 62 317 299 283 298 294 302 282 249 262 268 262 257 253 253 257 244 240 238 240 247 249 253 240 237 237 236 239 245 254 257 254 251 248 247 253 251 252 252 255 255 252 252
65 37 11 333 4 309 302 295 319 271 280 265 262 264 259 251 250 247 240 231 229 230 235 245 247 243 227 233 233 239 236 245 247 246 252 258 254 256 257 255 253 252 254 252 249
57 44 23 352 323 325 322 305 282 294 270 276 273 267 257 256 250 246 240 231 232 228 236 232 237 237 233 234 234 234 234 240 242 246 252 260 259 266 263 260 256 254 255 255 248
46 26 11 297 285 316 314 311 297 307 307 278 276 262 260 257 250 246 239 235 231 228 229 232 238 243 237 239 233 234 235 246 253 258 257 260 267 275 270 256 247 237 242 252 248
39 16 357 304 319 335 313 296 296 302 303 300 272 266 257 256 246 243 238 239 231 229 226 241 240 245 240 239 248 245 241 244 250 249 255 261 264 267 261 252 249 242 238 233 239
31 14 346 330 347 325 298 294 295 301 302 299 272 267 261 260 253 244 241 240 229 225 227 238 247 244 235 243 235 236 240 250 252 258 257 259 264 270 264 255 245 241 236 224 218
66 55 33 21 340 323 307 305 308 300 304 290 292 268 266 264 253 246 239 236 232 220 220 234 247 242 245 246 247 246 235 245 247 250 262 267 268 279 272 261 242 223 219 231 246
71 64 53 42 27 346 311 298 298 300 284 285 281 276 281 263 253 249 239 235 227 218 218 224 239 236 242 242 241 240 240 247 249 260 258 262 269 283 283 269 243 232 231 236 249
68 62 64 88 78 84 267 250 246 236 217 205 199 346 280 265 256 248 234 229 225 221 223 224 236 246 240 245 240 240 241 245 255 256 259 266 272 272 276 271 261 252 250 246 245
70 73 83 80 142 169 203 206 196 193 194 189 204 101 285 265 249 232 230 224 221 221 222 226 230 238 256 254 247 240 235 243 252 256 260 265 269 274 274 272 268 260 248 247 244
76 74 104 157 193 199 198 199 195 206 211 232 219 261 226 257 244 229 219 219 220 218 222 226 228 230 247 248 244 245 242 247 260 255 261 265 269 284 295 287 276 269 257 250 245
85 89 112 160 220 228 219 209 207 207 181 268 260 251 256 237 244 234 230 229 227 216 216 226 217 225 240 246 244 249 244 242 252 254 262 269 279 281 290 280 270 264 258 253 250